When you browse on this site, cookies collect data to enhance your experience and personalize the content and advertising you see.
Visit our Privacy Policy to learn more. By continuing to use the site, you agree to this use of cookies and data.
  • In Portugal
  • List of Countries
  • For 7 days
  • Water Temperature
  • Weather Map
  • Weather Widgets
  • user-avatar
    Login

    Hourly Weather Mairena del Aljarafe

    Today, 24 August, Saturday

    Time Temperature Precipitation Wind Pressure Humidity
    00:00 +23°C° 0 mm 2 mps 756 mmHg 69%
    01:00 +21°C° 0 mm 2 mps 756 mmHg 71%
    02:00 +21°C° 0 mm 2 mps 756 mmHg 72%
    03:00 +21°C° 0 mm 1 mps 756 mmHg 74%
    04:00 +20°C° 0 mm 2 mps 756 mmHg 73%
    05:00 +20°C° 0 mm 2 mps 755 mmHg 72%
    06:00 +20°C° 0 mm 2 mps 755 mmHg 71%
    07:00 +24°C° 0 mm 2 mps 756 mmHg 60%
    08:00 +27°C° 0 mm 3 mps 756 mmHg 49%
    09:00 +30°C° 0 mm 3 mps 756 mmHg 38%
    10:00 +32°C° 0 mm 2 mps 756 mmHg 31%
    11:00 +36°C° 0 mm 2 mps 755 mmHg 25%
    12:00 +39°C° 0 mm 1 mps 755 mmHg 19%
    13:00 +39°C° 0 mm 1 mps 755 mmHg 18%
    14:00 +40°C° 0 mm 2 mps 754 mmHg 16%
    15:00 +41°C° 0 mm 2 mps 754 mmHg 15%
    16:00 +39°C° 0 mm 3 mps 754 mmHg 18%
    17:00 +39°C° 0 mm 5 mps 753 mmHg 21%
    18:00 +36°C° 0 mm 6 mps 753 mmHg 24%
    19:00 +33°C° 0 mm 5 mps 754 mmHg 32%
    20:00 +29°C° 0 mm 5 mps 754 mmHg 40%
    21:00 +26°C° 0 mm 4 mps 755 mmHg 49%
    22:00 +26°C° 0 mm 4 mps 755 mmHg 51%
    23:00 +25°C° 0 mm 4 mps 755 mmHg 54%

    Tomorrow, 25 August, Sunday

    Time Temperature Precipitation Wind Pressure Humidity
    00:00 +24°C° 0 mm 3 mps 755 mmHg 56%
    01:00 +23°C° 0 mm 2 mps 755 mmHg 60%
    02:00 +22°C° 0 mm 1 mps 754 mmHg 65%
    03:00 +21°C° 0 mm 1 mps 754 mmHg 69%
    04:00 +21°C° 0 mm 1 mps 754 mmHg 70%
    05:00 +20°C° 0 mm 1 mps 754 mmHg 71%
    06:00 +20°C° 0 mm 1 mps 754 mmHg 72%
    07:00 +23°C° 0 mm 1 mps 754 mmHg 61%
    08:00 +26°C° 0 mm 1 mps 754 mmHg 50%
    09:00 +29°C° 0 mm 1 mps 755 mmHg 39%
    10:00 +31°C° 0 mm 1 mps 754 mmHg 33%
    11:00 +34°C° 0 mm 1 mps 754 mmHg 27%
    12:00 +36°C° 0 mm 1 mps 753 mmHg 21%
    13:00 +38°C° 0 mm 2 mps 753 mmHg 20%
    14:00 +38°C° 0 mm 3 mps 753 mmHg 20%
    15:00 +40°C° 0 mm 4 mps 752 mmHg 19%
    16:00 +37°C° 0 mm 5 mps 752 mmHg 26%
    17:00 +34°C° 0 mm 6 mps 751 mmHg 33%
    18:00 +32°C° 0 mm 6 mps 751 mmHg 40%
    19:00 +29°C° 0 mm 5 mps 752 mmHg 48%
    20:00 +27°C° 0 mm 5 mps 752 mmHg 56%
    21:00 +25°C° 0 mm 4 mps 753 mmHg 64%
    22:00 +24°C° 0 mm 3 mps 753 mmHg 68%
    23:00 +23°C° 0 mm 2 mps 753 mmHg 73%

    Day after tomorrow, 26 August, Monday

    Time Temperature Precipitation Wind Pressure Humidity
    00:00 +21°C° 0 mm 2 mps 753 mmHg 78%
    01:00 +21°C° 0 mm 2 mps 753 mmHg 80%
    02:00 +21°C° 0 mm 1 mps 752 mmHg 82%
    03:00 +21°C° 0 mm 1 mps 752 mmHg 85%
    04:00 +21°C° 0 mm 1 mps 752 mmHg 85%
    05:00 +20°C° 0 mm 1 mps 752 mmHg 86%
    06:00 +20°C° 0 mm 1 mps 752 mmHg 87%
    07:00 +23°C° 0 mm 2 mps 753 mmHg 75%
    08:00 +25°C° 0 mm 2 mps 753 mmHg 64%
    09:00 +28°C° 0 mm 2 mps 753 mmHg 53%
    10:00 +30°C° 0 mm 2 mps 753 mmHg 47%
    11:00 +31°C° 0 mm 3 mps 753 mmHg 42%
    12:00 +34°C° 0 mm 3 mps 753 mmHg 37%
    13:00 +34°C° 0 mm 4 mps 752 mmHg 37%
    14:00 +35°C° 0 mm 4 mps 752 mmHg 36%
    15:00 +35°C° 0 mm 5 mps 752 mmHg 36%
    16:00 +34°C° 0 mm 5 mps 752 mmHg 38%
    17:00 +33°C° 0 mm 5 mps 752 mmHg 40%
    18:00 +33°C° 0 mm 5 mps 752 mmHg 42%
    19:00 +29°C° 0 mm 4 mps 752 mmHg 54%
    20:00 +26°C° 0 mm 4 mps 753 mmHg 66%
    21:00 +24°C° 0 mm 3 mps 753 mmHg 78%
    22:00 +22°C° 0 mm 3 mps 754 mmHg 82%
    23:00 +21°C° 0 mm 2 mps 754 mmHg 86%

    27 August, Tuesday

    Time Temperature Precipitation Wind Pressure Humidity
    00:00 +21°C° 0 mm 1 mps 754 mmHg 90%
    01:00 +21°C° 0 mm 1 mps 754 mmHg 90%
    02:00 +21°C° 0 mm 1 mps 754 mmHg 90%
    03:00 +20°C° 0 mm 1 mps 753 mmHg 91%
    04:00 +20°C° 0 mm 1 mps 754 mmHg 91%
    05:00 +20°C° 0 mm 1 mps 754 mmHg 92%
    06:00 +20°C° 0 mm 1 mps 754 mmHg 92%
    07:00 +22°C° 0 mm 1 mps 754 mmHg 82%
    08:00 +25°C° 0 mm 1 mps 755 mmHg 72%
    09:00 +27°C° 0 mm 1 mps 755 mmHg 62%
    10:00 +30°C° 0 mm 1 mps 755 mmHg 52%
    11:00 +32°C° 0 mm 1 mps 755 mmHg 42%
    12:00 +34°C° 0 mm 1 mps 755 mmHg 32%
    13:00 +36°C° 0 mm 2 mps 754 mmHg 29%
    14:00 +37°C° 0 mm 2 mps 753 mmHg 27%
    15:00 +38°C° 0 mm 2 mps 753 mmHg 24%
    16:00 +37°C° 0 mm 2 mps 753 mmHg 27%
    17:00 +36°C° 0 mm 3 mps 753 mmHg 29%
    18:00 +34°C° 0 mm 4 mps 753 mmHg 32%
    19:00 +32°C° 0 mm 4 mps 753 mmHg 39%
    20:00 +28°C° 0 mm 3 mps 753 mmHg 46%
    21:00 +25°C° 0 mm 3 mps 754 mmHg 54%
    22:00 +24°C° 0 mm 2 mps 754 mmHg 55%
    23:00 +24°C° 0 mm 2 mps 754 mmHg 56%

    28 August, Wednesday

    Time Temperature Precipitation Wind Pressure Humidity
    00:00 +23°C° 0 mm 2 mps 754 mmHg 57%
    01:00 +23°C° 0 mm 1 mps 754 mmHg 59%
    02:00 +22°C° 0 mm 1 mps 754 mmHg 62%
    03:00 +22°C° 0 mm 1 mps 754 mmHg 65%
    04:00 +21°C° 0 mm 1 mps 754 mmHg 67%
    05:00 +21°C° 0 mm 1 mps 754 mmHg 70%
    06:00 +20°C° 0 mm 1 mps 754 mmHg 72%
    07:00 +23°C° 0 mm 1 mps 754 mmHg 62%
    08:00 +26°C° 0 mm 1 mps 755 mmHg 52%
    09:00 +29°C° 0 mm 1 mps 755 mmHg 41%
    10:00 +32°C° 0 mm 1 mps 755 mmHg 35%
    11:00 +35°C° 0 mm 1 mps 754 mmHg 29%
    12:00 +37°C° 0 mm 1 mps 754 mmHg 23%
    13:00 +39°C° 0 mm 2 mps 754 mmHg 21%
    14:00 +40°C° 0 mm 2 mps 753 mmHg 19%
    15:00 +40°C° 0 mm 3 mps 753 mmHg 17%
    16:00 +40°C° 0 mm 4 mps 753 mmHg 21%
    17:00 +37°C° 0 mm 5 mps 753 mmHg 26%
    18:00 +35°C° 0 mm 6 mps 753 mmHg 31%
    19:00 +32°C° 0 mm 5 mps 753 mmHg 41%
    20:00 +28°C° 0 mm 4 mps 753 mmHg 51%
    21:00 +25°C° 0 mm 3 mps 754 mmHg 61%
    22:00 +24°C° 0 mm 3 mps 754 mmHg 62%
    23:00 +24°C° 0 mm 2 mps 754 mmHg 63%

    29 August, Thursday

    Time Temperature Precipitation Wind Pressure Humidity
    00:00 +23°C° 0 mm 2 mps 755 mmHg 63%
    01:00 +23°C° 0 mm 1 mps 754 mmHg 68%
    02:00 +22°C° 0 mm 1 mps 754 mmHg 72%
    03:00 +19°C° 0 mm 0 mps 754 mmHg 77%
    04:00 +21°C° 0 mm 1 mps 754 mmHg 77%
    05:00 +21°C° 0 mm 1 mps 755 mmHg 77%
    06:00 +21°C° 0 mm 1 mps 755 mmHg 77%
    07:00 +24°C° 0 mm 1 mps 755 mmHg 65%
    08:00 +27°C° 0 mm 2 mps 755 mmHg 53%
    09:00 +30°C° 0 mm 2 mps 755 mmHg 41%
    10:00 +34°C° 0 mm 2 mps 755 mmHg 34%
    11:00 +35°C° 0 mm 1 mps 755 mmHg 27%
    12:00 +39°C° 0 mm 1 mps 754 mmHg 20%
    13:00 +40°C° 0 mm 2 mps 754 mmHg 20%
    14:00 +40°C° 0 mm 3 mps 753 mmHg 19%
    15:00 +42°C° 0 mm 3 mps 753 mmHg 19%
    16:00 +38°C° 0 mm 4 mps 753 mmHg 24%
    17:00 +36°C° 0 mm 5 mps 752 mmHg 30%
    18:00 +34°C° 0 mm 6 mps 752 mmHg 36%
    19:00 +32°C° 0 mm 5 mps 753 mmHg 45%
    20:00 +28°C° 0 mm 4 mps 753 mmHg 54%
    21:00 +25°C° 0 mm 3 mps 754 mmHg 63%
    22:00 +25°C° 0 mm 2 mps 754 mmHg 64%
    23:00 +24°C° 0 mm 2 mps 754 mmHg 65%
    Show more